Location: Marcé
(47.5801°N, 0.3280°W)
Time: 14:29:53
(UTC+01:00)

Vanguard 3 - Pass Details

Date: 11 December 2021
Orbit: 508 x 3260 km, 33.3° (Epoch: 20 January)

Event Time Altitude Azimuth Distance (km) Brightness Sun altitude
Rises 09:49:12 0° 276° (W) 7,138 11.5 8.0°
Reaches altitude 10° 09:57:30 10° 258° (WSW) 5,784 11.2 9.0°
Maximum altitude 10:05:03 15° 232° (SW) 4,902 11.2 9.8°
Drops below altitude 10° 10:11:27 10° 204° (SSW) 4,733 11.5 10.4°
Sets 10:16:59 0° 182° (S) 5,158 12.2 11.0°
